Theta_e
286 287 288 289 290 291 298 298 300 302 305 307 307 308 308 309 310 315 317 317 319 319
285 286 287 289 289 292 299 302 302 302 301 303 302 302 306 308 307 308 315 317 318 318
284 286 287 288 288 293 297 299 299 300 299 298 298 298 299 303 306 307 309 314 316 316
284 286 287 287 289 292 294 296 297 297 296 296 297 298 298 299 301 302 305 307 312 313
284 286 287 288 290 291 293 294 294 294 293 294 295 295 296 296 297 299 300 304 306 310
282 284 286 287 289 290 292 292 291 291 290 291 291 292 292 292 293 294 295 298 304 308
282 284 286 287 288 288 288 288 288 288 288 289 290 290 289 290 289 289 290 291 293 299
282 284 285 286 286 286 286 286 286 286 286 287 288 289 287 287 287 287 287 287 287 289
282 282 283 284 284 285 285 284 285 284 284 285 286 289 289 287 285 285 285 285 285 286
281 281 282 283 283 283 283 284 283 283 284 284 285 287 287 285 284 283 283 284 284 285
280 281 282 282 282 282 283 283 283 283 283 284 285 287 286 285 283 282 282 282 283 283
280 279 279 280 280 281 282 283 283 283 283 283 284 287 286 284 283 282 282 282 282 282
280 280 279 279 279 280 280 280 280 281 283 283 283 286 286 284 283 281 281 282 283 284
280 280 280 280 280 279 279 279 279 279 280 282 283 284 285 284 282 281 281 281 281 283
Wind_Speed
13 8 9 12 12 12 11 10 12 10 11 9 6 5 4 3 3 5 8 11 14 11
11 11 11 13 13 12 10 6 3 4 5 4 2 1 1 1 3 3 5 8 9 7
13 12 12 9 12 13 11 7 6 1 3 4 4 4 4 3 4 5 5 6 8 10
11 11 12 8 9 10 11 7 6 2 2 6 5 5 2 2 5 6 7 7 8 9
11 10 9 8 8 8 8 5 9 6 7 6 5 4 3 3 3 5 7 8 9 10
10 9 8 7 7 6 4 4 4 6 7 5 4 4 3 3 4 4 4 7 10 11
9 8 7 6 6 6 6 5 4 6 6 5 4 3 2 2 3 3 4 5 5 6
8 7 6 5 5 5 6 6 8 7 7 6 5 3 1 3 5 4 7 8 9 9
8 7 7 6 6 6 7 7 8 9 8 6 4 7 6 7 7 7 10 8 9 10
8 8 7 6 7 8 7 8 10 9 8 8 6 13 16 16 8 10 11 11 9 9
9 9 8 8 9 9 8 9 8 8 7 8 9 18 20 21 12 14 13 14 13 15
8 9 9 10 9 8 7 8 8 7 8 10 11 17 18 15 13 16 14 14 14 13
8 8 9 9 9 8 8 9 8 10 10 12 11 20 18 12 8 13 11 13 15 26
8 8 8 8 8 8 9 10 10 12 12 12 12 16 22 21 10 8 9 10 10 10
Wind_Direction
288 296 291 281 281 287 269 253 251 250 236 214 190 185 215 211 220 249 246 228 220 215
296 291 289 281 286 290 296 304 259 231 141 110 106 58 304 309 279 264 278 246 224 226
298 287 288 282 293 295 304 303 322 360 105 104 40 11 10 342 297 286 280 269 238 218
291 291 291 287 293 299 299 314 287 332 84 60 45 335 332 283 283 278 274 270 264 247
296 290 289 294 290 285 273 326 359 341 45 37 21 354 327 287 269 273 268 272 256 248
303 298 297 294 303 310 328 33 13 26 39 24 14 352 347 307 286 283 287 283 267 246
315 312 312 321 332 354 26 32 43 45 40 23 6 13 343 333 15 11 27 359 341 306
324 327 335 355 2 14 35 40 46 53 45 25 20 6 255 102 72 52 59 36 26 27
346 358 3 16 29 37 47 53 58 55 54 43 30 67 94 87 76 64 59 45 39 30
1 15 17 25 42 43 48 59 59 57 59 57 63 84 82 79 73 70 62 55 47 57
15 20 22 33 38 41 47 48 49 43 45 61 66 79 82 78 73 70 61 57 44 50
16 26 29 35 36 33 49 55 56 49 49 58 55 61 73 78 73 73 65 61 58 56
19 30 37 34 37 37 48 52 47 42 47 47 52 54 55 62 75 76 71 57 53 59
15 28 31 41 38 42 46 48 46 47 37 43 44 52 55 57 53 67 72 68 57 61